This demonstration page uses our WeatherBlox Daily Observations layout. Learn more.

Left ArrowRight Arrow

39.51506, -84.39828

Hourly Observations for May 2, 2019

Temp ( °F °C ) Dew Point ( °F °C ) Humidity (%) Winds ( mph kmh ) Pressure ( in mb ) Visibility ( mi km ) Precip ( " mm )
12:15 am 00:15 Cloudy with Light Rain 63 17 62 16.8 99 99 N N/A 30.11 1020 5 8 0.01 0.25
12:35 am 00:35 Cloudy with Light Rain 63 17.2 62 16.9 98 98 N N/A 30.10 1019 4 6 0.07 1.78
12:55 am 00:55 Mostly Cloudy with Light Rain 63 17.2 63 17 99 99 N N/A 30.11 1020 4 6 0.08 2.03
1:15 am 01:15 Mostly Cloudy with Mist and Fog 63 17 62 16.8 99 99 N N/A 30.09 1019 3 5 N/A
1:35 am 01:35 Cloudy with Mist and Fog 62 16.8 62 16.6 99 99 N N/A 30.09 1019 1 1 N/A
1:55 am 01:55 Mostly Cloudy with Fog 62 16.4 61 16.3 99 99 N N/A 30.10 1019 0 0 N/A
2:15 am 02:15 Mostly Cloudy with Fog 61 16.2 61 16.1 99 99 N N/A 30.10 1019 0 0 N/A
2:35 am 02:35 Cloudy with Fog 60 15.5 60 15.4 99 99 N N/A 30.10 1019 5 8 N/A
2:55 am 02:55 Cloudy with Fog 58 14.6 58 14.5 99 99 N N/A 30.11 1020 5 8 N/A
3:15 am 03:15 Cloudy with Fog 59 15.1 59 15 99 99 N N/A 30.11 1020 5 8 N/A
3:35 am 03:35 Cloudy with Fog 60 15.4 60 15.3 99 99 N N/A 30.10 1019 0 0 N/A
3:55 am 03:55 Cloudy with Fog 60 15.3 59 15.2 99 99 N N/A 30.10 1019 0 0 N/A
4:15 am 04:15 Cloudy with Fog 58 14.5 58 14.4 99 99 N N/A 30.11 1020 5 8 N/A
4:35 am 04:35 Cloudy with Fog 58 14.5 58 14.4 99 99 N N/A 30.13 1020 0 0 N/A
4:55 am 04:55 Cloudy with Fog 58 14.4 58 14.2 99 99 N N/A 30.13 1020 0 0 N/A
5:15 am 05:15 Cloudy with Fog 57 13.9 57 13.9 100 100 N N/A 30.13 1020 5 8 N/A
5:35 am 05:35 Cloudy with Fog 57 14.1 57 14 99 99 N N/A 30.13 1020 5 8 N/A
5:55 am 05:55 Cloudy with Fog 58 14.3 58 14.2 99 99 N N/A 30.12 1020 5 8 N/A
6:15 am 06:15 Cloudy with Fog 58 14.3 58 14.2 99 99 N N/A 30.12 1020 0 0 N/A
6:35 am 06:35 Cloudy with Fog 58 14.5 58 14.4 99 99 N N/A 30.12 1020 5 8 N/A
6:55 am 06:55 Cloudy with Fog 58 14.7 58 14.7 100 100 N N/A 30.12 1020 5 8 N/A
7:15 am 07:15 Cloudy with Fog 59 15.1 59 15 99 99 N N/A 30.12 1020 5 8 N/A
7:35 am 07:35 Cloudy with Fog 59 15.2 59 15.1 99 99 N N/A 30.13 1020 0 0 N/A
7:55 am 07:55 Cloudy with Fog 60 15.5 60 15.5 100 100 N N/A 30.13 1020 0 0 N/A
8:15 am 08:15 Cloudy with Fog 61 15.9 61 15.9 100 100 N N/A 30.13 1020 0 0 N/A
8:35 am 08:35 Cloudy with Fog 61 16.3 61 16.2 99 99 N N/A 30.14 1021 0 0 N/A
8:55 am 08:55 Cloudy with Mist and Fog 63 17.1 63 17.1 100 100 SSE 6 9 30.13 1020 1 2 N/A
9:15 am 09:15 Cloudy with Mist and Fog 63 17.4 63 17.4 100 100 S 6 9 30.13 1020 2 3 N/A
9:35 am 09:35 Cloudy with Mist and Fog 64 17.9 64 17.8 99 99 SSE 5 7 30.13 1020 3 4 N/A
9:55 am 09:55 Cloudy with Mist and Fog 64 18 64 17.8 99 99 SSE 3 6 30.12 1020 3 5 N/A
10:15 am 10:15 Cloudy with Mist and Fog 64 18 64 18 100 100 S 3 6 30.13 1020 5 8 N/A
10:35 am 10:35 Cloudy with Mist and Fog 66 18.7 65 18.1 96 96 S 6 9 30.14 1021 5 8 N/A
10:55 am 10:55 Cloudy with Mist and Fog 67 19.7 65 18.2 91 91 N N/A 30.14 1020 7 11 N/A
11:15 am 11:15 Mostly Cloudy 68 19.8 65 18.2 91 91 SSW 3 6 30.14 1020 7 11 N/A
11:35 am 11:35 Mostly Cloudy 69 20.7 64 18 85 85 S 7 11 30.12 1020 10 16 N/A
11:55 am 11:55 Partly Cloudy 70 21.1 65 18.3 84 84 SSE 7 11 30.12 1020 10 16 N/A
12:15 pm 12:15 Mostly Cloudy 71 21.4 64 17.8 80 80 S 8 13 30.12 1020 10 16 N/A
12:35 pm 12:35 Partly Cloudy 74 23.2 64 17.5 70 70 S 9 15 30.11 1020 10 16 N/A
12:55 pm 12:55 Mostly Cloudy 73 22.7 63 17.4 72 72 SSW 7 11 30.10 1019 10 16 N/A
1:15 pm 13:15 Cloudy 73 22.9 64 17.6 72 72 S 7 11 30.09 1019 10 16 N/A
1:35 pm 13:35 Mostly Cloudy 73 22.9 64 17.9 74 74 SW 7 11 30.09 1019 10 16 N/A
1:55 pm 13:55 Cloudy 73 22.5 64 17.8 75 75 WSW 14 22 30.09 1019 10 16 0.01 0.25
2:15 pm 14:15 Cloudy with Thunderstorms 69 20.8 64 17.9 84 84 WSW 10 17 30.10 1019 7 11 0.03 0.76
2:35 pm 14:35 Partly Cloudy with Nearby Thunderstorms 71 21.6 66 18.7 84 84 SSW 7 11 30.11 1020 10 16 0.03 0.76
2:55 pm 14:55 Sunny with Nearby Thunderstorms 71 21.6 64 18 80 80 N N/A 30.09 1019 10 16 0.03 0.76
3:15 pm 15:15 Partly Cloudy 72 22.1 65 18.2 79 79 N N/A 30.08 1019 10 16 N/A
3:35 pm 15:35 Sunny 73 23 66 18.8 77 77 SSE 5 7 30.07 1018 10 16 N/A
3:55 pm 15:55 Partly Cloudy 74 23.4 64 17.8 71 71 SSW 3 6 30.06 1018 10 16 N/A
4:15 pm 16:15 Sunny 76 24.3 62 16.8 63 63 WNW 5 7 30.05 1018 10 16 N/A
4:35 pm 16:35 Mostly Cloudy 76 24.5 62 16.5 61 61 WSW 10 17 30.05 1018 10 16 N/A
4:55 pm 16:55 Partly Cloudy 74 23.5 60 15.7 62 62 W 9 15 30.06 1018 10 16 N/A
5:15 pm 17:15 Partly Cloudy 75 23.7 61 16 62 62 NW 5 7 30.04 1017 10 16 N/A
5:35 pm 17:35 Mostly Cloudy 75 23.9 61 16 61 61 W 7 11 30.05 1017 10 16 N/A
5:55 pm 17:55 Partly Cloudy 73 22.8 60 15.7 64 64 W 7 11 30.05 1018 10 16 N/A
6:15 pm 18:15 Partly Cloudy 72 22.1 61 15.9 68 68 W 5 7 30.06 1018 10 16 N/A
6:35 pm 18:35 Partly Cloudy 72 22.1 61 16.1 69 69 N N/A 30.05 1018 10 16 N/A
6:55 pm 18:55 Mostly Cloudy 71 21.8 62 16.7 73 73 WSW 3 6 30.05 1018 10 16 N/A
7:15 pm 19:15 Sunny 71 21.4 64 17.6 79 79 N N/A 30.04 1017 10 16 N/A
7:35 pm 19:35 Partly Cloudy 70 20.9 64 17.7 82 82 N N/A 30.03 1017 10 16 N/A
7:55 pm 19:55 Mostly Cloudy 70 21.1 62 16.7 76 76 SSW 6 9 30.04 1017 10 16 N/A
8:15 pm 20:15 Partly Cloudy 69 20.8 61 16.1 75 75 SW 7 11 30.04 1017 10 16 N/A
8:35 pm 20:35 Cloudy 68 20.2 61 16.2 78 78 SSW 5 7 30.04 1017 10 16 N/A
8:55 pm 20:55 Mostly Cloudy 66 19 63 17.3 90 90 N N/A 30.05 1018 10 16 N/A
9:15 pm 21:15 Clear 66 18.8 63 17.3 91 91 N N/A 30.04 1017 10 16 N/A
9:35 pm 21:35 Mostly Cloudy 64 17.5 62 16.9 96 96 N N/A 30.04 1017 10 16 N/A
9:55 pm 21:55 Mostly Cloudy 63 17.1 62 16.5 96 96 N N/A 30.05 1018 10 16 N/A
10:15 pm 22:15 Clear 64 17.5 62 16.8 96 96 N N/A 30.05 1018 10 16 N/A
10:35 pm 22:35 Clear 63 17.2 62 16.5 96 96 W 3 6 30.04 1017 10 16 N/A
10:55 pm 22:55 Clear 62 16.5 61 16 97 97 N N/A 30.04 1017 10 16 N/A
11:15 pm 23:15 Clear 62 16.5 60 15.8 96 96 N N/A 30.04 1017 10 16 N/A
11:35 pm 23:35 Cloudy 62 16.7 61 15.9 95 95 N N/A 30.04 1017 10 16 N/A
11:55 pm 23:55 Mostly Cloudy 62 16.6 61 16 96 96 N N/A 30.03 1017 10 16 N/A

Powered by AerisWeather